Location: *
(41.0285°S, 175.8187°E)
Time: 00:57:49
(UTC+00:00)

Daily predictions for brighter satellites

Satellite Brightness Start Highest point End
(mag) Time Altitude Azimuth Time Altitude Azimuth Time Altitude Azimuth
COSMOS 2428 2.8 08:04:01 10° SSW 08:09:49 78° ESE 08:15:32 10° NNE
Cosmos 1842 Rocket 3.7 08:09:22 10° S 08:13:55 87° W 08:18:23 10° N
NOSS 0 Rocket 4.0 08:20:14 10° SSW 08:26:29 79° ESE 08:32:39 10° NNE
Cosmos 783 Rocket 4.5 08:21:42 10° NNW 08:26:57 81° ENE 08:32:15 10° SSE
SPOT 5 3.8 08:23:18 10° SSE 08:28:10 35° E 08:33:01 10° NNE
Meteor 1-18 Rocket 4.4 08:23:18 10° S 08:29:18 82° E 08:35:07 10° NNE
CSL-04 Rocket 4.2 08:26:31 10° SSE 08:31:33 39° E 08:36:36 10° NNE
Cosmos 1174 4.4 08:29:08 10° SSW 08:33:34 78° WNW 08:39:01 10° NNE
USA 186 3.6 08:35:42 10° ESE 08:36:42 11° E 08:37:01 11° E
USA 267 4.3 08:31:07 10° SE 08:37:27 50° SSW 08:43:46 10° WNW
Cosmos 1805 4.4 08:35:34 10° NNW 08:38:47 39° WSW 08:42:03 10° S
USA 290 3.9 08:36:17 10° NW 08:39:22 37° WSW 08:42:27 10° S
SJ-6B 3.3 08:35:57 10° S 08:39:25 54° WSW 08:42:51 10° NNW
Meteor 1-31 Rocket 2.5 08:35:57 10° SSE 08:39:31 87° E 08:43:01 10° NNW
ATLAS 3B R/B 2.6 08:33:29 10° SSW 08:39:49 86° ESE 08:45:55 13° NE
Cosmos 1975 4.0 08:41:08 14° NE 08:43:08 22° E 08:46:04 10° SE
SL-16 R/B 3.8 08:46:16 10° S 08:50:39 22° SE 08:54:56 10° ENE
Cosmos 1709 Rocket 4.1 08:45:09 10° N 08:51:15 62° E 08:57:30 10° SSE
BREEZE-M DEB (TANK) 3.5 08:48:22 10° WSW 08:52:03 34° S 08:54:30 10° ESE
Cosmos 1766 3.0 08:49:55 13° N 08:52:47 52° E 08:56:08 10° SSE
Cosmos 2297 Rocket 2.7 08:49:06 10° NW 08:54:43 64° WSW 09:00:24 10° SSE
Cosmos 1745 Rocket 4.0 08:49:10 10° N 08:55:20 89° E 09:01:38 10° S
ATLAS CENTAUR R/B 1.3 08:54:14 19° NNE 08:55:35 28° ENE 08:58:09 10° SE
Cosmos 1151 Rocket 3.0 08:53:25 10° S 08:57:52 87° W 09:01:47 13° N
ARIANE 6 FM1 Upper Stage 3.7 08:56:33 10° NW 09:00:51 53° SW 09:05:18 10° SSE
Cosmos 1980 3.7 08:56:17 10° SSW 09:02:00 89° WNW 09:06:29 17° NNE
Meteor 2-9 Rocket 4.2 08:57:15 10° N 09:02:33 59° E 09:08:03 10° SSE
CSL-04 Debris 4.1 08:57:36 10° SSE 09:03:04 70° ENE 09:08:26 10° N
Cosmos 1536 3.4 09:00:02 10° NNW 09:03:40 53° W 09:07:22 10° S
Cosmos 1300 3.2 09:04:49 22° E 09:04:58 22° E 09:07:16 10° SE
SL-4 R/B 2.8 09:02:18 10° WSW 09:06:07 39° NW 09:08:27 20° NNE
CZ-4B R/B 3.5 09:04:17 10° SSE 09:09:26 45° E 09:13:16 17° NNE
Cosmos 2219 4.2 09:07:24 19° NE 09:10:11 28° ENE 09:14:59 10° SE
Nadezhda 1 Rocket 4.3 09:05:11 10° SSW 09:11:37 70° W 09:17:58 10° N
USA 234 3.3 09:07:17 18° NE 09:12:23 84° NW 09:19:01 10° SW
Meteor 1-14 Rocket 4.2 09:07:38 10° N 09:13:12 86° W 09:18:50 10° S
Cosmos 1867 4.4 09:10:24 19° NNE 09:13:15 30° ENE 09:17:55 10° SE
Cosmos 1908 3.5 09:11:53 10° NNW 09:14:45 46° W 09:17:41 10° S
Cosmos 2237 Rocket 2.3 09:09:04 10° SSW 09:14:49 77° WNW 09:18:59 19° NNE
OAO 3 Rocket 3.6 09:10:49 10° WNW 09:15:11 40° N 09:17:19 25° NE
Helios 1A 3.3 09:12:06 16° N 09:15:15 60° W 09:19:16 10° SSW
CZ-4B DEB 4.1 09:10:27 10° SSE 09:15:59 79° ENE 09:21:26 10° N
Okean O Rocket 2.6 09:13:39 10° SE 09:17:35 30° E 09:18:58 25° NE
Okean-O 3.7 09:14:56 10° SE 09:18:41 26° E 09:19:46 24° ENE
SL-14 R/B 3.4 09:16:27 10° SSW 09:20:15 68° W 09:22:40 21° N
ISS -2.8 09:21:14 10° WNW 09:24:33 51° SSW 09:27:55 10° SE
CZ-4B R/B 4.0 09:21:26 10° SE 09:24:43 25° E 09:25:08 25° ENE
Meteor 1-11 Rocket 3.7 09:20:50 15° N 09:25:29 70° E 09:31:05 10° SSE
Resurs 01 Rocket 4.4 09:23:23 10° SSW 09:26:34 19° WSW 09:29:43 10° WNW
OAO 2 Rocket 3.9 09:22:20 10° WNW 09:27:06 40° N 09:29:10 28° NE
Cosmos 1470 2.4 09:26:57 35° NNE 09:28:13 62° E 09:31:42 10° SSE
Feng Yun 1-1 Rocket 4.3 09:22:55 10° SSE 09:28:57 85° ENE 09:34:39 11° NNW
ADEOS 3.5 09:25:53 10° SSE 09:31:11 83° ENE 09:35:38 15° NNW
Cosmos 724 4.2 09:25:56 10° NNW 09:31:40 86° ENE 09:37:31 10° SSE
Cosmos 1271 Rocket 3.2 09:28:50 10° SSW 09:32:09 46° W 09:33:56 23° NNW
Cosmos 2263 Rocket 2.1 09:30:13 11° NNW 09:35:35 68° ENE 09:41:16 10° SSE
Terra 1.8 09:30:57 10° SSE 09:35:42 62° E 09:38:10 27° N
Meteor 1-13 Rocket 4.3 09:30:01 10° S 09:35:55 72° E 09:39:06 28° NNE
Okean 3 Rocket 4.4 09:39:23 30° ENE 09:40:18 33° E 09:44:22 10° SSE
CZ-4 R/B 3.1 09:38:53 10° S 09:42:14 30° WSW 09:45:38 10° NW
USA 281 4.0 09:36:43 10° SE 09:42:26 30° ENE 09:44:13 26° NE
Cosmos 2227 Rocket 2.8 09:40:10 10° NW 09:45:44 57° WSW 09:51:24 10° SSE
Ariane Rocket 4.4 09:44:04 10° SE 09:47:50 20° E 09:48:08 20° E
MOS 1-B 4.4 09:42:56 10° SSE 09:48:42 59° E 09:51:35 29° N
ERS-1 Rocket 2.9 09:44:32 10° SSE 09:49:38 87° WSW 09:52:56 22° NNW
Cosmos 1680 Rocket 3.7 09:47:56 33° NNE 09:49:58 51° ENE 09:55:09 10° SSE
USA 245 4.5 09:47:42 10° SE 09:49:40 21° ESE 09:49:40 21° ESE
Cosmos 2074 Rocket 4.1 09:49:02 29° NNE 09:52:14 60° E 09:58:26 10° SSE
CZ-4C R/B 3.1 09:44:53 10° NNW 09:53:51 68° ENE 10:01:29 10° SE
Cosmos 2181 Rocket 4.0 09:47:28 10° S 09:54:01 79° E 09:57:22 31° NNE
USA 32 4.2 09:55:13 36° NE 09:57:03 55° E 10:02:13 10° SSE
Cosmos 494 Rocket 4.5 09:57:00 36° NE 09:57:54 39° ENE 10:02:42 10° SE
GP-B 4.1 09:55:46 10° SSE 09:59:43 30° E 10:00:05 30° E
BREEZE-M TANK 4.2 09:57:00 10° WSW 10:01:11 62° S 10:14:04 10° E
Cosmos 2084 Rocket 3.6 10:02:03 46° ENE 10:02:03 46° ENE 10:05:52 10° SE
IRS-1A Rocket 4.1 09:57:28 10° SSE 10:03:07 80° ENE 10:05:57 30° N
Cosmos 1515 Rocket 3.8 09:59:40 10° S 10:04:02 55° E 10:04:51 47° ENE
SPOT 3 Rocket 4.2 10:00:41 10° SSE 10:05:30 36° E 10:06:14 34° ENE
Cosmos 1607 4.4 10:00:13 10° NW 10:06:35 65° SW 10:13:00 10° SSE
USA 186 3.7 10:04:24 10° SSW 10:06:41 22° WSW 10:07:47 18° WNW
CZ-2C R/B 2.8 10:03:38 10° S 10:06:43 53° WSW 10:07:09 47° WNW
CRYOSAT 2 4.5 10:06:34 44° NE 10:07:57 62° E 10:12:51 10° S
Spot 2 Rocket 3.4 10:03:25 10° SSE 10:08:36 73° ENE 10:10:25 40° N
Meteor 2-13 Rocket 4.4 10:03:26 10° S 10:09:36 78° E 10:12:06 38° NNE
GRACE-FO 1 4.3 10:09:47 75° NNW 10:10:02 83° W 10:13:36 10° S
GRACE-FO 2 4.4 10:10:13 75° NNW 10:10:26 82° W 10:14:01 10° S
Cosmos 1295 Rocket 4.4 10:08:05 29° N 10:11:33 89° WSW 10:17:48 10° S
BREEZE-M DEB (TANK) 2.6 10:06:43 10° WSW 10:12:13 47° NW 10:12:14 47° NW
Meteor 1-21 4.2 10:07:05 10° S 10:12:57 81° E 10:15:09 41° NNE
Helios 1B rocket 3.9 10:10:19 10° SE 10:12:10 20° ESE 10:12:10 20° ESE
Meteor 2-10 Rocket 4.3 10:17:20 36° ENE 10:18:20 39° E 10:23:38 10° SSE
Cosmos 1818 4.3 10:14:43 10° SW 10:19:48 42° WNW 10:21:28 33° NNW
CZ-4B R/B 3.5 10:17:27 10° SSE 10:22:49 89° ENE 10:24:46 41° NNW
Dummy Sat-01 4.5 10:23:27 82° WNW 10:23:31 83° W 10:27:17 10° S
Okean 2 3.8 10:21:47 10° S 10:25:27 45° ESE 10:25:27 45° ESE
Cosmos 2184 Rocket 4.1 10:24:55 31° NNW 10:28:05 76° W 10:34:23 10° S
ATLAS CENTAUR R/B 3.7 10:28:45 10° W 10:30:27 14° SW 10:32:11 10° S
Cosmos 2082 3.7 10:27:51 28° NNW 10:30:59 80° WSW 10:36:46 10° SSE
Geosat 4.5 10:28:27 10° SE 10:33:05 42° ENE 10:33:05 42° ENE
Cosmos 1805 Rocket 3.5 10:34:55 68° ENE 10:35:07 69° E 10:39:33 10° SSE
SL-16 R/B 2.4 10:29:32 10° SSW 10:35:11 61° WNW 10:36:47 44° NNW
Cosmos 2227 4.4 10:35:39 46° NE 10:36:11 48° ENE 10:41:39 10° SE
IRS-1C Rocket 4.0 10:34:28 10° SSE 10:39:48 70° ENE 10:40:47 56° NNE
BREEZE-M DEB (TANK) 4.1 10:23:35 10° WSW 10:40:18 79° SSE 10:42:07 39° E
CZ-2C R/B 4.1 10:45:49 46° NW 10:46:24 50° W 10:50:45 10° SSW
Sich 1 3.5 10:48:02 46° WNW 10:48:40 50° W 10:52:48 10° S
Cosmos 2112 Rocket 4.5 10:46:29 31° NW 10:48:56 59° WSW 10:54:17 10° SSE
Cosmos 2341 Rocket 4.4 10:47:38 42° NE 10:48:59 49° E 10:55:05 10° SSE
Landsat 5 3.9 10:51:19 52° ESE 10:51:21 52° ESE 10:55:35 10° S
Okean O Rocket 3.6 10:49:58 10° SSW 10:53:37 25° WSW 10:56:13 15° WNW
Cosmos 2219 4.3 10:49:12 13° NW 10:54:04 42° WSW 10:59:32 10° S
Okean-O 4.4 10:51:06 10° S 10:54:54 28° WSW 10:57:08 19° WNW
Cosmos 2056 Rocket 3.6 10:49:44 10° SSW 10:55:09 73° WNW 10:56:04 59° NNW
Cosmos 1500 Rocket 3.6 10:54:56 66° WNW 10:55:18 71° W 10:59:49 10° S
Cosmos 1943 3.2 10:53:08 10° SSW 10:58:52 76° ESE 10:59:58 58° NE
ISS -0.6 10:59:39 10° SW 11:01:57 17° SSW 11:04:16 10° SSE
ATLAS 5 CENTAUR R/B 3.1 11:04:41 10° SSW 11:10:03 36° SE 11:11:46 28° E
Meteor 2-19 Rocket 4.4 11:04:00 10° S 11:10:09 71° E 11:11:24 56° NE
Terra 4.4 11:09:58 10° SSW 11:12:41 15° WSW 11:15:23 10° W
Cosmos 1844 Rocket 2.6 11:12:41 64° NNW 11:13:38 85° ENE 11:19:21 10° SSE
PSLV R/B 3.9 11:16:09 56° W 11:16:09 56° W 11:20:02 10° SSW
Cosmos 1862 Rocket 4.1 11:12:56 10° S 11:16:50 47° ESE 11:16:50 47° ESE
Cosmos 1331 Rocket 4.0 11:17:02 10° SSW 11:22:24 69° ESE 11:22:56 64° ENE
Ariane Rocket 3.7 11:22:00 10° S 11:26:56 47° WSW 11:28:13 39° WNW
USA 281 3.8 11:20:42 10° SSE 11:27:05 52° WSW 11:31:05 23° NW
Cosmos 1048 Rocket 4.3 11:26:22 50° WNW 11:27:29 62° WSW 11:32:47 10° SSE
Cosmos 1603 3.8 11:25:36 10° SSW 11:31:22 68° ESE 11:32:20 57° ENE
Cosmos 2218 Rocket 4.0 11:31:06 59° N 11:32:29 89° E 11:39:01 10° S
Cosmos 2228 Rocket 3.5 11:31:31 10° S 11:35:33 57° SE 11:35:33 57° SE
Cosmos 1953 4.0 11:39:20 24° SE 11:39:20 24° SE 11:41:26 10° SSE
Cosmos 1707 Rocket 3.7 11:35:30 10° S 11:39:31 72° S 11:39:31 72° S
CZ-4C R/B 4.3 11:34:53 10° WNW 11:42:44 36° SW 11:49:22 10° SSE
Helios 1B rocket 4.2 11:43:39 10° SSW 11:46:30 21° WSW 11:46:30 21° WSW
Cosmos 1959 Rocket 4.5 11:48:38 57° NW 11:49:50 72° W 11:56:03 10° S
Meteor 1-22 Rocket 4.1 11:51:59 73° N 11:52:34 89° E 11:58:12 10° S
Cosmos 1666 Rocket 4.0 11:53:37 56° WSW 11:53:37 56° WSW 11:57:48 10° S
